THY223 LTFM-SVMI

Flight info

Callsign THY223
Flight time N/A
Altitude 30000
Route BARPE UM603 SUTIS DCT KOGIS DCT LATAN/N0505F290 DCT PININ DCT SUSIP/N0503F300 UM725 TUC UA411 KEMIR UM978 MORJA UA411 ALR UG26 CHE UA411 FES/N0499F320 UA411 SALCA DCT SUBAL DCT NAVIX/M085F320 DCT 34N020W 30N030W DCT EKNUT/N0504F340 DCT 20N040W 15N050W 15N058W/N0494F360 DCT FOF/N0474F240 A551 ONGAL/N0497F360 UA551 OPLUD/N0477F240 A551 KOMPU NETSI1
Aircraft B77W/H-SDE1E2E3FGHIJ2J3J4J5M1RWXY/LB1D1

Departure

Time 2026-05-08 07:29
Airport İstanbul Airport (LTFM)

Arrival

Time N/A
Airport Maiquetía Simón Bolívar International Airport (SVMI)
Time Latitude Longitude Altitude Speed Heading
2026-05-08 07:13 41.26792 28.73442 339 ft 0 kts 179°
2026-05-08 07:15 41.26813 28.73441 335 ft 4 kts 179°
2026-05-08 07:15 41.26840 28.73440 333 ft 3 kts 179°
2026-05-08 07:16 41.26862 28.73444 333 ft 4 kts 223°
2026-05-08 07:16 41.26871 28.73472 333 ft 4 kts 269°
2026-05-08 07:16 41.26871 28.73495 334 ft 0 kts 269°
2026-05-08 07:19 41.26871 28.73482 333 ft 3 kts 269°
2026-05-08 07:19 41.26870 28.73447 333 ft 4 kts 269°
2026-05-08 07:19 41.26870 28.73399 334 ft 6 kts 269°
2026-05-08 07:19 41.26869 28.73330 335 ft 9 kts 269°
2026-05-08 07:20 41.26868 28.73248 335 ft 9 kts 269°
2026-05-08 07:20 41.26867 28.73166 336 ft 9 kts 269°
2026-05-08 07:20 41.26866 28.73084 336 ft 9 kts 269°
2026-05-08 07:20 41.26874 28.73008 333 ft 8 kts 308°
2026-05-08 07:21 41.26938 28.72988 336 ft 12 kts 357°
2026-05-08 07:21 41.27025 28.72985 334 ft 12 kts 359°
2026-05-08 07:21 41.27111 28.72984 334 ft 12 kts 359°
2026-05-08 07:21 41.27197 28.72981 334 ft 12 kts 359°
2026-05-08 07:22 41.27292 28.72979 337 ft 18 kts 359°
2026-05-08 07:22 41.27419 28.72976 336 ft 18 kts 359°
2026-05-08 07:22 41.27546 28.72973 335 ft 18 kts 359°
2026-05-08 07:22 41.27671 28.72970 338 ft 18 kts 359°
2026-05-08 07:23 41.27797 28.72967 336 ft 18 kts 359°
2026-05-08 07:23 41.27924 28.72965 337 ft 18 kts 359°
2026-05-08 07:23 41.28051 28.72962 335 ft 18 kts 358°
2026-05-08 07:23 41.28178 28.72958 334 ft 18 kts 359°
2026-05-08 07:24 41.28304 28.72956 334 ft 18 kts 359°
2026-05-08 07:24 41.28431 28.72953 334 ft 18 kts 359°
2026-05-08 07:24 41.28558 28.72950 334 ft 18 kts 359°
2026-05-08 07:24 41.28685 28.72947 335 ft 18 kts 359°
2026-05-08 07:25 41.28810 28.72944 335 ft 18 kts 359°
2026-05-08 07:25 41.28937 28.72941 335 ft 18 kts 359°
2026-05-08 07:25 41.29190 28.72935 337 ft 18 kts 359°
2026-05-08 07:26 41.29317 28.72932 335 ft 18 kts 359°
2026-05-08 07:26 41.29440 28.72930 336 ft 12 kts 359°
2026-05-08 07:26 41.29482 28.72906 334 ft 7 kts 310°
2026-05-08 07:26 41.29493 28.72848 333 ft 7 kts 267°
2026-05-08 07:27 41.29490 28.72761 335 ft 10 kts 269°
2026-05-08 07:27 41.29489 28.72664 339 ft 10 kts 269°
2026-05-08 07:27 41.29488 28.72567 339 ft 10 kts 269°
2026-05-08 07:27 41.29473 28.72475 333 ft 11 kts 226°
2026-05-08 07:28 41.29403 28.72452 334 ft 11 kts 179°
2026-05-08 07:28 41.29264 28.72456 336 ft 45 kts 179°
2026-05-08 07:28 41.28701 28.72469 334 ft 116 kts 179°
2026-05-08 07:28 41.27691 28.72492 337 ft 176 kts 179°
2026-05-08 07:29 41.26336 28.72525 492 ft 203 kts 179°
2026-05-08 07:29 41.24914 28.72539 1064 ft 206 kts 178°
2026-05-08 07:29 41.23488 28.72613 1710 ft 205 kts 177°
2026-05-08 07:29 41.22038 28.72706 2129 ft 217 kts 177°
2026-05-08 07:30 41.20448 28.72802 2299 ft 239 kts 177°
2026-05-08 07:30 41.18753 28.72823 2643 ft 248 kts 189°
2026-05-08 07:30 41.17189 28.71844 3049 ft 254 kts 222°
2026-05-08 07:30 41.15895 28.70190 3542 ft 261 kts 223°
2026-05-08 07:31 41.14570 28.68569 4225 ft 263 kts 222°
2026-05-08 07:31 41.13217 28.66935 4936 ft 264 kts 222°
2026-05-08 07:31 41.12027 28.65092 5438 ft 267 kts 246°
2026-05-08 07:31 41.11542 28.62718 5918 ft 269 kts 259°
2026-05-08 07:32 41.11157 28.60261 6521 ft 272 kts 257°
2026-05-08 07:32 41.10740 28.57805 7198 ft 273 kts 257°
2026-05-08 07:32 41.10316 28.55341 7830 ft 275 kts 257°
2026-05-08 07:32 41.09887 28.52849 8440 ft 278 kts 257°
2026-05-08 07:33 41.09459 28.50371 9032 ft 281 kts 257°
2026-05-08 07:33 41.09019 28.47835 9594 ft 283 kts 257°
2026-05-08 07:33 41.08574 28.45277 10166 ft 288 kts 257°
2026-05-08 07:33 41.08109 28.42618 10375 ft 306 kts 257°
2026-05-08 07:34 41.07612 28.39777 10547 ft 325 kts 257°
2026-05-08 07:34 41.07082 28.36754 10725 ft 345 kts 257°
2026-05-08 07:34 41.06528 28.33604 11083 ft 358 kts 257°
2026-05-08 07:34 41.05959 28.30374 11598 ft 366 kts 257°
2026-05-08 07:35 41.05374 28.27060 12243 ft 370 kts 257°
2026-05-08 07:35 41.04783 28.23716 12953 ft 373 kts 257°
2026-05-08 07:35 41.04188 28.20352 13615 ft 376 kts 257°
2026-05-08 07:35 41.03589 28.16969 14249 ft 379 kts 257°
2026-05-08 07:36 41.02981 28.13546 14862 ft 383 kts 257°
2026-05-08 07:36 41.02368 28.10098 15480 ft 386 kts 257°
2026-05-08 07:36 41.01756 28.06662 16074 ft 390 kts 257°
2026-05-08 07:36 41.01129 28.03152 16676 ft 393 kts 257°
2026-05-08 07:37 41.00496 27.99613 17248 ft 396 kts 257°
2026-05-08 07:37 40.99856 27.96040 17815 ft 400 kts 257°
2026-05-08 07:37 40.99211 27.92446 18363 ft 403 kts 257°
2026-05-08 07:37 40.98559 27.88817 18907 ft 406 kts 256°
2026-05-08 07:38 40.97900 27.85157 19439 ft 409 kts 256°
2026-05-08 07:38 40.97235 27.81478 19965 ft 412 kts 256°
2026-05-08 07:38 40.96564 27.77777 20471 ft 415 kts 256°
2026-05-08 07:38 40.95886 27.74044 20964 ft 418 kts 256°
2026-05-08 07:39 40.95203 27.70287 21429 ft 422 kts 256°
2026-05-08 07:39 40.94521 27.66544 21903 ft 424 kts 256°
2026-05-08 07:39 40.93825 27.62729 22365 ft 427 kts 256°
2026-05-08 07:39 40.93122 27.58880 22810 ft 430 kts 256°
2026-05-08 07:40 40.92414 27.55018 23247 ft 433 kts 256°
2026-05-08 07:40 40.91710 27.51180 23669 ft 436 kts 256°
2026-05-08 07:40 40.90991 27.47268 24094 ft 438 kts 256°
2026-05-08 07:40 40.90265 27.43326 24477 ft 441 kts 256°
2026-05-08 07:41 40.89534 27.39363 24865 ft 444 kts 256°
2026-05-08 07:41 40.88815 27.35430 25221 ft 445 kts 258°
2026-05-08 07:41 40.88523 27.31348 25444 ft 449 kts 275°
2026-05-08 07:41 40.89021 27.27270 25680 ft 451 kts 281°
2026-05-08 07:42 40.89416 27.24554 25885 ft 454 kts 281°
2026-05-08 07:42 40.89975 27.20436 26256 ft 456 kts 279°
2026-05-08 07:42 40.90490 27.16297 26653 ft 457 kts 279°
2026-05-08 07:42 40.90976 27.12144 27012 ft 458 kts 278°
2026-05-08 07:43 40.91450 27.07962 27324 ft 461 kts 278°
2026-05-08 07:43 40.91926 27.03750 27631 ft 463 kts 278°
2026-05-08 07:43 40.92405 26.99519 27953 ft 465 kts 278°
2026-05-08 07:43 40.92696 26.95308 28193 ft 466 kts 269°
2026-05-08 07:44 40.92505 26.91015 28410 ft 469 kts 264°
2026-05-08 07:44 40.92166 26.86709 28659 ft 471 kts 264°
2026-05-08 07:44 40.91816 26.82383 28931 ft 473 kts 264°
2026-05-08 07:44 40.91491 26.78055 29202 ft 474 kts 264°
2026-05-08 07:45 40.91196 26.73705 29445 ft 476 kts 265°
2026-05-08 07:45 40.90922 26.69326 29665 ft 477 kts 265°
2026-05-08 07:45 40.90662 26.64992 29876 ft 479 kts 265°
2026-05-08 07:46 40.90136 26.56128 29990 ft 482 kts 265°
2026-05-08 07:46 40.89606 26.47392 29993 ft 477 kts 265°
2026-05-08 07:47 40.89065 26.38653 30002 ft 476 kts 265°
2026-05-08 07:47 40.88518 26.29923 30009 ft 476 kts 265°
2026-05-08 07:48 40.87929 26.21249 30001 ft 476 kts 263°
2026-05-08 07:48 40.87066 26.12561 30000 ft 477 kts 262°
2026-05-08 07:49 40.86186 26.03855 30016 ft 478 kts 263°
2026-05-08 07:49 40.85347 25.95175 30000 ft 478 kts 262°
2026-05-08 07:50 40.84347 25.86472 30001 ft 478 kts 261°
2026-05-08 07:50 40.83261 25.77787 30002 ft 478 kts 261°
2026-05-08 07:51 40.82199 25.69164 30001 ft 478 kts 261°
2026-05-08 07:51 40.81141 25.60489 30001 ft 478 kts 261°
2026-05-08 07:52 40.80078 25.51821 30002 ft 478 kts 261°
2026-05-08 07:52 40.79008 25.43160 30001 ft 478 kts 261°
2026-05-08 07:53 40.77915 25.34549 30000 ft 477 kts 260°
2026-05-08 07:53 40.76805 25.25917 30001 ft 477 kts 260°
2026-05-08 07:54 40.75691 25.17276 30002 ft 477 kts 260°
2026-05-08 07:54 40.74574 25.08638 30001 ft 477 kts 260°
2026-05-08 07:55 40.73457 24.99999 30002 ft 477 kts 260°
2026-05-08 07:55 40.72350 24.91416 30002 ft 478 kts 260°
2026-05-08 07:56 40.71230 24.82781 30001 ft 478 kts 260°
2026-05-08 07:56 40.70073 24.74147 29999 ft 478 kts 257°
2026-05-08 07:57 40.68413 24.65640 30015 ft 481 kts 255°
2026-05-08 07:57 40.66672 24.57085 29996 ft 480 kts 255°
2026-05-08 07:58 40.64973 24.48678 30002 ft 477 kts 255°
2026-05-08 07:58 40.63276 24.40241 29995 ft 475 kts 255°
2026-05-08 07:59 40.61582 24.31836 30002 ft 474 kts 255°
2026-05-08 07:59 40.59892 24.23486 30001 ft 475 kts 255°
2026-05-08 08:00 40.58178 24.15053 29997 ft 477 kts 255°
2026-05-08 08:00 40.56456 24.06620 30000 ft 478 kts 255°
2026-05-08 08:01 40.54734 23.98218 30002 ft 479 kts 255°
2026-05-08 08:01 40.52993 23.89762 29997 ft 479 kts 255°
2026-05-08 08:02 40.51244 23.81300 30011 ft 479 kts 255°
2026-05-08 08:02 40.49486 23.72825 29995 ft 480 kts 255°
2026-05-08 08:03 40.47734 23.64415 30016 ft 481 kts 255°
2026-05-08 08:03 40.45954 23.55907 29995 ft 483 kts 255°
2026-05-08 08:04 40.44164 23.47382 30014 ft 484 kts 255°
2026-05-08 08:04 40.42374 23.38895 30001 ft 484 kts 254°
2026-05-08 08:05 40.40573 23.30388 29992 ft 483 kts 254°
2026-05-08 08:05 40.38766 23.21888 29998 ft 482 kts 254°
2026-05-08 08:06 40.36973 23.13484 29999 ft 480 kts 254°
2026-05-08 08:06 40.35167 23.05054 29997 ft 479 kts 254°
2026-05-08 08:07 40.33361 22.96660 30000 ft 477 kts 254°
2026-05-08 08:07 40.31555 22.88293 30000 ft 476 kts 254°
2026-05-08 08:08 40.29754 22.79985 30002 ft 476 kts 254°
2026-05-08 08:08 40.27938 22.71638 30002 ft 476 kts 254°
2026-05-08 08:09 40.26124 22.63331 30002 ft 477 kts 254°
2026-05-08 08:09 40.24287 22.54954 30003 ft 477 kts 254°
2026-05-08 08:10 40.22445 22.46583 30002 ft 478 kts 254°
2026-05-08 08:10 40.20607 22.38262 29999 ft 479 kts 254°
2026-05-08 08:11 40.18750 22.29891 29998 ft 480 kts 253°
2026-05-08 08:11 40.16880 22.21486 29999 ft 483 kts 253°
2026-05-08 08:12 40.14988 22.13016 30003 ft 487 kts 253°
2026-05-08 08:12 40.13074 22.04474 30020 ft 490 kts 253°
2026-05-08 08:13 40.11128 21.96002 29992 ft 490 kts 252°
2026-05-08 08:13 40.08931 21.87590 29992 ft 487 kts 250°
2026-05-08 08:14 40.06691 21.79265 29995 ft 483 kts 251°
2026-05-08 08:14 40.04490 21.70994 29997 ft 482 kts 251°
2026-05-08 08:15 40.02312 21.62739 29998 ft 484 kts 251°
2026-05-08 08:15 40.00128 21.54466 29999 ft 481 kts 251°
2026-05-08 08:16 39.97940 21.46203 29996 ft 480 kts 251°
2026-05-08 08:16 39.95751 21.37973 30002 ft 480 kts 251°
2026-05-08 08:17 39.93569 21.29795 29997 ft 481 kts 251°
2026-05-08 08:17 39.91353 21.21519 29997 ft 484 kts 251°
2026-05-08 08:18 39.89112 21.13178 30016 ft 488 kts 251°
2026-05-08 08:18 39.86865 21.04843 30012 ft 491 kts 250°
2026-05-08 08:19 39.84595 20.96449 30001 ft 488 kts 250°
2026-05-08 08:19 39.82349 20.88172 30001 ft 482 kts 250°
2026-05-08 08:20 39.80121 20.79985 29994 ft 481 kts 250°
2026-05-08 08:20 39.77876 20.71766 30007 ft 482 kts 250°
2026-05-08 08:21 39.75625 20.63549 29996 ft 482 kts 250°
2026-05-08 08:21 39.73374 20.55357 29993 ft 481 kts 250°
2026-05-08 08:22 39.71131 20.47225 30002 ft 480 kts 250°
2026-05-08 08:22 39.68873 20.39063 29994 ft 480 kts 250°
2026-05-08 08:23 39.66610 20.30905 30002 ft 480 kts 250°
2026-05-08 08:23 39.64335 20.22735 30001 ft 481 kts 250°
2026-05-08 08:24 39.62071 20.14628 30003 ft 480 kts 250°
2026-05-08 08:24 39.59791 20.06488 29995 ft 479 kts 250°
2026-05-08 08:25 39.57508 19.98363 30293 ft 480 kts 250°
2026-05-08 08:25 39.56367 19.94312 30654 ft 477 kts 250°
2026-05-08 08:25 39.55228 19.90276 31010 ft 475 kts 250°
2026-05-08 08:25 39.54086 19.86233 31206 ft 476 kts 250°
2026-05-08 08:26 39.52946 19.82206 31537 ft 474 kts 250°
2026-05-08 08:26 39.51816 19.78218 31896 ft 471 kts 250°
2026-05-08 08:26 39.50682 19.74224 31929 ft 473 kts 250°
2026-05-08 08:27 39.48418 19.66264 32002 ft 474 kts 250°
2026-05-08 08:27 39.46144 19.58298 32000 ft 471 kts 250°
2026-05-08 08:28 39.43872 19.50359 32001 ft 469 kts 250°
2026-05-08 08:28 39.41982 19.43774 32002 ft 469 kts 250°
2026-05-08 08:29 39.39333 19.34572 32003 ft 470 kts 249°
2026-05-08 08:29 39.37430 19.27982 32003 ft 471 kts 249°
2026-05-08 08:30 39.35130 19.20039 32003 ft 472 kts 249°
2026-05-08 08:30 39.31664 19.08106 32002 ft 473 kts 249°
2026-05-08 08:31 39.29422 19.00169 31992 ft 473 kts 253°
2026-05-08 08:31 39.28044 18.91874 32005 ft 473 kts 260°
2026-05-08 08:32 39.26882 18.83507 32001 ft 473 kts 259°
2026-05-08 08:32 39.25690 18.75142 32001 ft 473 kts 259°
2026-05-08 08:33 39.24476 18.66812 32001 ft 472 kts 259°
2026-05-08 08:33 39.23257 18.58536 32001 ft 472 kts 259°
2026-05-08 08:34 39.22024 18.50209 32001 ft 472 kts 259°
2026-05-08 08:34 39.20790 18.41917 32001 ft 472 kts 259°
2026-05-08 08:35 39.19548 18.33607 32001 ft 472 kts 259°
2026-05-08 08:35 39.18299 18.25292 32001 ft 472 kts 259°
2026-05-08 08:36 39.17043 18.16970 32001 ft 472 kts 259°
2026-05-08 08:36 39.15791 18.08718 32001 ft 472 kts 259°
2026-05-08 08:37 39.14522 18.00400 32001 ft 472 kts 259°
2026-05-08 08:37 39.13256 17.92139 32001 ft 472 kts 259°
2026-05-08 08:38 39.11977 17.83836 32001 ft 472 kts 259°
2026-05-08 08:38 39.10692 17.75534 32001 ft 472 kts 258°
2026-05-08 08:39 39.09401 17.67233 32001 ft 472 kts 258°
2026-05-08 08:39 39.08112 17.58991 32001 ft 472 kts 258°
2026-05-08 08:40 39.06806 17.50680 32001 ft 472 kts 258°
2026-05-08 08:40 39.05498 17.42389 32001 ft 472 kts 258°
2026-05-08 08:41 39.04184 17.34105 32001 ft 472 kts 258°
2026-05-08 08:41 39.02873 17.25879 32001 ft 472 kts 258°
2026-05-08 08:42 39.01548 17.17611 32001 ft 472 kts 258°
2026-05-08 08:42 39.00217 17.09340 32000 ft 472 kts 258°
2026-05-08 08:43 38.98880 17.01066 32002 ft 473 kts 258°
2026-05-08 08:43 38.97532 16.92773 32004 ft 473 kts 258°
2026-05-08 08:44 38.96188 16.84536 32000 ft 473 kts 258°
2026-05-08 08:44 38.94829 16.76252 32000 ft 473 kts 258°
2026-05-08 08:45 38.93472 16.68015 32002 ft 473 kts 258°
2026-05-08 08:45 38.92099 16.59716 32001 ft 474 kts 258°
2026-05-08 08:46 38.90721 16.51433 32004 ft 474 kts 258°
2026-05-08 08:46 38.89344 16.43187 32002 ft 474 kts 258°
2026-05-08 08:47 38.87953 16.34903 32002 ft 474 kts 258°
2026-05-08 08:47 38.86558 16.26628 32000 ft 474 kts 258°
2026-05-08 08:48 38.85159 16.18366 32000 ft 473 kts 258°
2026-05-08 08:48 38.83764 16.10172 32000 ft 472 kts 257°
2026-05-08 08:49 38.82359 16.01948 32001 ft 472 kts 257°
2026-05-08 08:49 38.80947 15.93727 32001 ft 471 kts 257°
2026-05-08 08:50 38.79537 15.85551 32002 ft 471 kts 257°
2026-05-08 08:50 38.78115 15.77337 32002 ft 471 kts 257°
2026-05-08 08:51 38.76686 15.69127 32002 ft 472 kts 257°
2026-05-08 08:51 38.75261 15.60973 32002 ft 472 kts 257°
2026-05-08 08:52 38.73816 15.52741 32001 ft 472 kts 257°
2026-05-08 08:52 38.72375 15.44568 32001 ft 472 kts 257°
2026-05-08 08:53 38.70921 15.36356 32001 ft 472 kts 257°
2026-05-08 08:53 38.69459 15.28132 32001 ft 472 kts 257°
2026-05-08 08:54 38.68000 15.19963 32001 ft 472 kts 257°
2026-05-08 08:54 38.66527 15.11752 32001 ft 472 kts 257°
2026-05-08 08:55 38.65050 15.03553 32001 ft 472 kts 257°
2026-05-08 08:55 38.63575 14.95399 32001 ft 472 kts 257°
2026-05-08 08:56 38.62085 14.87201 32001 ft 472 kts 257°
2026-05-08 08:56 38.60595 14.79034 32001 ft 472 kts 257°
2026-05-08 08:57 38.59093 14.70837 32001 ft 472 kts 257°
2026-05-08 08:57 38.57598 14.62709 32001 ft 472 kts 257°
2026-05-08 08:58 38.56085 14.54521 31999 ft 472 kts 257°
2026-05-08 08:58 38.54568 14.46345 32003 ft 472 kts 257°
2026-05-08 08:59 38.53053 14.38216 32001 ft 472 kts 256°
2026-05-08 08:59 38.51524 14.30043 32001 ft 472 kts 256°
2026-05-08 09:00 38.49991 14.21886 32001 ft 472 kts 256°
2026-05-08 09:00 38.48458 14.13758 32001 ft 472 kts 256°
2026-05-08 09:01 38.46911 14.05591 32001 ft 472 kts 256°
2026-05-08 09:01 38.45370 13.97490 32001 ft 472 kts 256°
2026-05-08 09:02 38.43813 13.89334 32001 ft 472 kts 256°
2026-05-08 09:02 38.42252 13.81192 32001 ft 472 kts 256°
2026-05-08 09:03 38.40693 13.73095 32001 ft 472 kts 256°
2026-05-08 09:03 38.39116 13.64935 32001 ft 472 kts 256°
2026-05-08 09:04 38.37550 13.56864 32001 ft 472 kts 256°
2026-05-08 09:04 38.35967 13.48742 32001 ft 472 kts 256°
2026-05-08 09:05 38.34378 13.40618 32001 ft 472 kts 256°
2026-05-08 09:05 38.32783 13.32493 32001 ft 472 kts 256°
2026-05-08 09:06 38.31179 13.24362 32001 ft 472 kts 256°
2026-05-08 09:06 38.29582 13.16290 32001 ft 472 kts 256°
2026-05-08 09:07 38.27967 13.08164 32001 ft 472 kts 256°
2026-05-08 09:07 38.26350 13.00056 32001 ft 472 kts 256°
2026-05-08 09:08 38.24727 12.91954 32001 ft 472 kts 256°
2026-05-08 09:08 38.23109 12.83904 32001 ft 472 kts 256°
2026-05-08 09:09 38.22309 12.79894 31848 ft 457 kts 259°
2026-05-08 09:09 38.21597 12.76037 31820 ft 435 kts 259°
2026-05-08 09:09 38.20911 12.72368 31870 ft 417 kts 258°
2026-05-08 09:09 38.20169 12.68840 31908 ft 410 kts 258°
2026-05-08 09:10 38.18659 12.61781 31965 ft 418 kts 258°
2026-05-08 09:10 38.17170 12.54614 31971 ft 425 kts 258°
2026-05-08 09:11 38.15667 12.47287 31968 ft 430 kts 258°
2026-05-08 09:11 38.14155 12.39915 31977 ft 431 kts 258°
2026-05-08 09:12 38.12634 12.32530 31974 ft 431 kts 258°
2026-05-08 09:12 38.11121 12.25210 31964 ft 430 kts 258°
2026-05-08 09:13 38.09600 12.17878 31984 ft 428 kts 258°
2026-05-08 09:13 38.08078 12.10567 31982 ft 427 kts 258°
2026-05-08 09:14 38.06567 12.03331 31995 ft 426 kts 258°
2026-05-08 09:14 38.05043 11.96055 31989 ft 426 kts 257°
2026-05-08 09:15 38.03515 11.88785 31985 ft 426 kts 257°
2026-05-08 09:15 38.01988 11.81547 31992 ft 427 kts 257°
2026-05-08 09:16 38.00447 11.74260 31992 ft 429 kts 257°
2026-05-08 09:16 37.99156 11.68180 31995 ft 429 kts 257°
2026-05-08 09:17 37.97597 11.60856 31995 ft 430 kts 257°
2026-05-08 09:17 37.96029 11.53511 31990 ft 430 kts 257°
2026-05-08 09:18 37.94466 11.46239 31994 ft 429 kts 256°
2026-05-08 09:18 37.91814 11.39422 32000 ft 437 kts 240°
2026-05-08 09:19 37.87824 11.33530 31992 ft 447 kts 227°
2026-05-08 09:19 37.83076 11.28443 31990 ft 447 kts 226°
2026-05-08 09:20 37.78373 11.23379 31995 ft 446 kts 226°
2026-05-08 09:20 37.73666 11.18243 31995 ft 446 kts 227°
2026-05-08 09:21 37.68966 11.13108 31994 ft 446 kts 226°
2026-05-08 09:23 37.52523 10.95215 31994 ft 447 kts 226°
2026-05-08 09:23 37.47804 10.90096 31995 ft 447 kts 226°
2026-05-08 09:24 37.43112 10.85018 31978 ft 448 kts 226°
2026-05-08 09:24 37.38361 10.79901 31990 ft 448 kts 226°
2026-05-08 09:25 37.33613 10.74798 31993 ft 449 kts 226°
2026-05-08 09:25 37.28891 10.69728 31993 ft 449 kts 226°
2026-05-08 09:26 37.24121 10.64614 31995 ft 450 kts 226°
2026-05-08 09:26 37.19353 10.59511 31986 ft 450 kts 226°
2026-05-08 09:27 37.14617 10.54451 32001 ft 450 kts 226°
2026-05-08 09:27 37.09841 10.49357 32001 ft 450 kts 226°
2026-05-08 09:28 37.05075 10.44282 31995 ft 449 kts 226°
2026-05-08 09:28 37.00305 10.39211 31971 ft 449 kts 226°
2026-05-08 09:29 36.95567 10.34181 31996 ft 449 kts 226°
2026-05-08 09:29 36.90793 10.29121 31995 ft 450 kts 226°
2026-05-08 09:30 36.86685 10.23465 32002 ft 433 kts 246°
2026-05-08 09:30 36.84898 10.16378 31993 ft 433 kts 266°
2026-05-08 09:31 36.84803 10.08836 31999 ft 436 kts 270°
2026-05-08 09:31 36.84770 10.01208 32004 ft 441 kts 269°
2026-05-08 09:32 36.84686 9.93650 31989 ft 432 kts 269°
2026-05-08 09:32 36.84574 9.86153 32006 ft 432 kts 269°
2026-05-08 09:33 36.84452 9.78633 32010 ft 433 kts 269°
2026-05-08 09:33 36.84326 9.71101 32011 ft 434 kts 269°
2026-05-08 09:34 36.84196 9.63604 31995 ft 435 kts 269°
2026-05-08 09:34 36.84061 9.56045 32005 ft 435 kts 269°
2026-05-08 09:35 36.83922 9.48469 32016 ft 436 kts 269°
2026-05-08 09:35 36.83782 9.40937 32018 ft 436 kts 269°
2026-05-08 09:36 36.83745 9.33359 32014 ft 437 kts 269°
2026-05-08 09:36 36.83743 9.25779 32022 ft 436 kts 269°
2026-05-08 09:37 36.83727 9.18191 32027 ft 436 kts 269°
2026-05-08 09:37 36.83697 9.10621 32020 ft 436 kts 269°
2026-05-08 09:38 36.83659 9.03056 32025 ft 436 kts 269°
2026-05-08 09:38 36.83617 8.95486 32025 ft 435 kts 269°
2026-05-08 09:39 36.83570 8.87982 32029 ft 435 kts 269°
2026-05-08 09:39 36.83519 8.80435 32017 ft 435 kts 269°
2026-05-08 09:40 36.83464 8.72883 32019 ft 435 kts 269°
2026-05-08 09:40 36.83403 8.65335 32033 ft 435 kts 269°
2026-05-08 09:41 36.83385 8.57784 32023 ft 435 kts 269°
2026-05-08 09:41 36.83397 8.50240 32027 ft 436 kts 269°
2026-05-08 09:42 36.83401 8.42663 32032 ft 436 kts 269°
2026-05-08 09:42 36.83395 8.35139 32032 ft 436 kts 269°
2026-05-08 09:43 36.83382 8.27563 32036 ft 436 kts 269°
2026-05-08 09:43 36.83364 8.19985 32029 ft 436 kts 269°
2026-05-08 09:44 36.83341 8.12406 32022 ft 435 kts 269°
2026-05-08 09:44 36.83314 8.04896 32024 ft 435 kts 269°
2026-05-08 09:45 36.83282 7.97322 32025 ft 435 kts 269°
2026-05-08 09:45 36.83246 7.89771 32026 ft 434 kts 269°
2026-05-08 09:46 36.83205 7.82277 32020 ft 434 kts 268°
2026-05-08 09:46 36.83142 7.74734 32023 ft 434 kts 268°
2026-05-08 09:47 36.83060 7.67192 32024 ft 434 kts 268°
2026-05-08 09:47 36.82974 7.59689 32024 ft 434 kts 268°
2026-05-08 09:48 36.82886 7.52144 32022 ft 434 kts 268°
2026-05-08 09:48 36.82795 7.44642 32030 ft 434 kts 268°
2026-05-08 09:49 36.82698 7.37096 32028 ft 434 kts 268°
2026-05-08 09:49 36.82597 7.29547 32029 ft 435 kts 268°
2026-05-08 09:50 36.82491 7.22041 32028 ft 434 kts 268°
2026-05-08 09:50 36.82380 7.14483 32025 ft 434 kts 268°
2026-05-08 09:51 36.82265 7.06976 32020 ft 434 kts 268°
2026-05-08 09:51 36.82145 6.99429 32029 ft 434 kts 268°
2026-05-08 09:52 36.82020 6.91876 32029 ft 435 kts 268°
2026-05-08 09:52 36.81889 6.84310 32004 ft 436 kts 268°
2026-05-08 09:53 36.81755 6.76798 32030 ft 434 kts 267°
2026-05-08 09:53 36.81616 6.69259 32031 ft 434 kts 267°
2026-05-08 09:54 36.81472 6.61724 32007 ft 433 kts 267°
2026-05-08 09:54 36.81325 6.54249 32023 ft 433 kts 267°
2026-05-08 09:55 36.81171 6.46730 32011 ft 433 kts 267°
2026-05-08 09:55 36.81013 6.39213 32027 ft 433 kts 267°
2026-05-08 09:56 36.80850 6.31679 32019 ft 434 kts 267°
2026-05-08 09:56 36.80683 6.24178 32015 ft 435 kts 267°
2026-05-08 09:57 36.80422 6.12841 32007 ft 435 kts 267°
2026-05-08 09:57 36.80246 6.05316 32013 ft 433 kts 266°
2026-05-08 09:58 36.80060 5.97844 31998 ft 433 kts 266°
2026-05-08 09:58 36.79871 5.90318 31981 ft 433 kts 266°
2026-05-08 09:59 36.79362 5.82831 31997 ft 432 kts 261°
2026-05-08 09:59 36.78585 5.75432 32000 ft 432 kts 262°
2026-05-08 10:00 36.77819 5.67991 32006 ft 432 kts 261°
2026-05-08 10:00 36.77056 5.60563 32014 ft 432 kts 261°
2026-05-08 10:01 36.76291 5.53136 32018 ft 431 kts 261°
2026-05-08 10:01 36.75525 5.45761 32017 ft 431 kts 261°
2026-05-08 10:02 36.74748 5.38325 32011 ft 431 kts 261°
2026-05-08 10:02 36.73973 5.30950 32009 ft 431 kts 261°
2026-05-08 10:03 36.73189 5.23529 31995 ft 431 kts 261°
2026-05-08 10:03 36.72401 5.16119 31988 ft 431 kts 261°
2026-05-08 10:04 36.71617 5.08760 31997 ft 430 kts 261°
2026-05-08 10:04 36.71234 5.01292 31993 ft 431 kts 265°
2026-05-08 10:05 36.70970 4.93808 32004 ft 432 kts 265°
2026-05-08 10:05 36.70738 4.87595 32006 ft 431 kts 264°
2026-05-08 10:06 36.70403 4.78911 31992 ft 431 kts 264°
2026-05-08 10:06 36.70158 4.72697 32000 ft 430 kts 264°
2026-05-08 10:07 36.69858 4.65259 32009 ft 429 kts 264°
2026-05-08 10:07 36.69557 4.57811 32007 ft 430 kts 264°
2026-05-08 10:08 36.69251 4.50416 32011 ft 430 kts 264°
2026-05-08 10:08 36.68937 4.42982 32009 ft 429 kts 264°
2026-05-08 10:09 36.68618 4.35555 32003 ft 428 kts 264°
2026-05-08 10:09 36.68298 4.28151 32006 ft 427 kts 264°
2026-05-08 10:10 36.67976 4.20763 32006 ft 427 kts 264°
2026-05-08 10:10 36.67651 4.13418 32017 ft 427 kts 263°
2026-05-08 10:11 36.67317 4.06030 32006 ft 426 kts 263°
2026-05-08 10:11 36.66978 3.98645 32005 ft 425 kts 263°
2026-05-08 10:12 36.66640 3.91339 32003 ft 425 kts 263°
2026-05-08 10:12 36.66299 3.84001 32010 ft 424 kts 263°
2026-05-08 10:13 36.65946 3.76653 32006 ft 425 kts 263°
2026-05-08 10:13 36.65595 3.69305 32004 ft 425 kts 263°
2026-05-08 10:14 36.65251 3.61996 32005 ft 425 kts 264°
2026-05-08 10:14 36.65545 3.54614 32008 ft 429 kts 273°
2026-05-08 10:15 36.66383 3.47246 32000 ft 428 kts 272°
2026-05-08 10:15 36.67165 3.39892 31994 ft 427 kts 272°
2026-05-08 10:16 36.67935 3.32596 31995 ft 427 kts 272°
2026-05-08 10:16 36.68697 3.25252 31993 ft 426 kts 270°
2026-05-08 10:17 36.68813 3.17918 31994 ft 422 kts 263°
2026-05-08 10:17 36.68197 3.10657 31991 ft 421 kts 261°
2026-05-08 10:18 36.67571 3.03445 32013 ft 421 kts 260°
2026-05-08 10:18 36.66948 2.96175 32006 ft 422 kts 260°
2026-05-08 10:19 36.66322 2.88902 32008 ft 422 kts 260°
2026-05-08 10:20 36.65378 2.78040 32006 ft 421 kts 260°
2026-05-08 10:20 36.64740 2.70781 32016 ft 421 kts 260°
2026-05-08 10:21 36.64101 2.63528 32024 ft 421 kts 260°
2026-05-08 10:21 36.63460 2.56321 32020 ft 421 kts 260°
2026-05-08 10:22 36.62815 2.49110 32018 ft 420 kts 260°
2026-05-08 10:22 36.62162 2.41870 32019 ft 420 kts 260°
2026-05-08 10:23 36.61505 2.34621 32013 ft 420 kts 260°
2026-05-08 10:23 36.60849 2.27426 32042 ft 420 kts 259°
2026-05-08 10:24 36.59891 2.20253 32017 ft 418 kts 253°
2026-05-08 10:24 36.58140 2.13378 32021 ft 416 kts 246°
2026-05-08 10:25 36.55900 2.06805 32024 ft 415 kts 246°
2026-05-08 10:25 36.53645 2.00195 32022 ft 416 kts 246°
2026-05-08 10:26 36.51386 1.93554 32015 ft 416 kts 246°
2026-05-08 10:26 36.49134 1.86922 32009 ft 417 kts 246°
2026-05-08 10:27 36.46874 1.80288 32020 ft 415 kts 246°
2026-05-08 10:27 36.44630 1.73714 32023 ft 415 kts 246°
2026-05-08 10:28 36.42372 1.67110 32024 ft 414 kts 245°
2026-05-08 10:28 36.40128 1.60561 32018 ft 414 kts 246°
2026-05-08 10:29 36.37869 1.53981 32028 ft 414 kts 246°
2026-05-08 10:29 36.35613 1.47396 32039 ft 414 kts 246°
2026-05-08 10:30 36.33412 1.40825 32008 ft 415 kts 246°
2026-05-08 10:30 36.31198 1.34198 32022 ft 415 kts 246°
2026-05-08 10:31 36.28985 1.27599 32022 ft 415 kts 246°
2026-05-08 10:31 36.26770 1.21027 32025 ft 414 kts 246°
2026-05-08 10:32 36.24545 1.14431 32053 ft 414 kts 246°
2026-05-08 10:32 36.22318 1.07846 32020 ft 414 kts 246°
2026-05-08 10:33 36.20091 1.01279 32017 ft 412 kts 246°
2026-05-08 10:33 36.17878 0.94766 32014 ft 412 kts 245°
2026-05-08 10:34 36.15651 0.88229 32024 ft 412 kts 245°
2026-05-08 10:34 36.13423 0.81698 32019 ft 411 kts 245°
2026-05-08 10:35 36.11191 0.75173 32047 ft 412 kts 245°
2026-05-08 10:35 36.08964 0.68675 32016 ft 412 kts 245°
2026-05-08 10:36 36.06719 0.62138 32017 ft 412 kts 245°
2026-05-08 10:36 36.04485 0.55645 32006 ft 412 kts 245°
2026-05-08 10:37 36.02233 0.49119 32013 ft 412 kts 245°
2026-05-08 10:37 35.99994 0.42642 32009 ft 412 kts 245°
2026-05-08 10:38 35.97734 0.36120 32032 ft 411 kts 245°
2026-05-08 10:38 35.95473 0.29603 32020 ft 413 kts 245°
2026-05-08 10:39 35.93218 0.23118 32006 ft 414 kts 245°
2026-05-08 10:39 35.90940 0.16580 32006 ft 414 kts 245°
2026-05-08 10:40 35.88644 0.10052 32008 ft 414 kts 245°
2026-05-08 10:40 35.86312 0.03552 32009 ft 414 kts 245°
2026-05-08 10:41 35.83991 -0.02898 32009 ft 414 kts 246°
2026-05-08 10:41 35.81663 -0.09373 32001 ft 412 kts 246°
2026-05-08 10:42 35.79338 -0.15829 32002 ft 411 kts 246°
2026-05-08 10:42 35.77016 -0.22268 32001 ft 410 kts 246°
2026-05-08 10:43 35.74705 -0.28660 31957 ft 410 kts 246°
2026-05-08 10:43 35.72384 -0.35069 31977 ft 409 kts 246°
2026-05-08 10:44 35.70070 -0.41445 31977 ft 410 kts 246°
2026-05-08 10:44 35.67740 -0.47853 31972 ft 410 kts 246°
2026-05-08 10:45 35.65402 -0.54272 31966 ft 411 kts 246°
2026-05-08 10:45 35.63060 -0.60684 31970 ft 411 kts 245°
2026-05-08 10:46 35.60308 -0.66821 31973 ft 412 kts 238°
2026-05-08 10:46 35.56906 -0.72467 31974 ft 413 kts 234°
2026-05-08 10:47 35.53351 -0.78027 31992 ft 413 kts 234°
2026-05-08 10:47 35.49802 -0.83593 31938 ft 414 kts 234°
2026-05-08 10:48 35.46283 -0.89112 31972 ft 412 kts 234°
2026-05-08 10:48 35.42749 -0.94651 31973 ft 412 kts 234°
2026-05-08 10:49 35.39215 -1.00182 31974 ft 412 kts 234°
2026-05-08 10:49 35.35679 -1.05706 31996 ft 412 kts 234°
2026-05-08 10:50 35.32140 -1.11226 31972 ft 412 kts 234°
2026-05-08 10:50 35.28612 -1.16720 32003 ft 412 kts 234°
2026-05-08 10:51 35.25062 -1.22241 31993 ft 412 kts 234°
2026-05-08 10:51 35.21535 -1.27717 31994 ft 411 kts 234°
2026-05-08 10:52 35.17985 -1.33218 31992 ft 412 kts 234°
2026-05-08 10:52 35.14425 -1.38729 31966 ft 413 kts 234°
2026-05-08 10:53 35.10870 -1.44220 31972 ft 413 kts 234°
2026-05-08 10:53 35.07302 -1.49725 31977 ft 412 kts 234°
2026-05-08 10:54 35.03762 -1.55179 31964 ft 412 kts 234°
2026-05-08 10:54 35.00201 -1.60656 31981 ft 411 kts 234°
2026-05-08 10:55 34.96640 -1.66124 31967 ft 411 kts 234°
2026-05-08 10:55 34.93080 -1.71583 31980 ft 411 kts 234°
2026-05-08 10:56 34.89537 -1.77009 31981 ft 412 kts 234°
2026-05-08 10:56 34.85954 -1.82489 31986 ft 413 kts 234°
2026-05-08 10:57 34.82312 -1.87878 31965 ft 414 kts 233°
2026-05-08 10:57 34.77921 -1.95463 31979 ft 410 kts 243°
2026-05-08 10:58 34.75206 -2.02799 31973 ft 408 kts 252°
2026-05-08 10:58 34.73793 -2.08280 31974 ft 408 kts 252°
2026-05-08 10:59 34.72096 -2.14869 31956 ft 408 kts 252°
2026-05-08 10:59 34.70385 -2.21441 31956 ft 408 kts 252°
2026-05-08 11:00 34.68654 -2.28036 31965 ft 410 kts 251°
2026-05-08 11:00 34.66912 -2.34651 31963 ft 411 kts 251°
2026-05-08 11:01 34.65175 -2.41232 31955 ft 411 kts 251°
2026-05-08 11:01 34.63424 -2.47850 31943 ft 411 kts 251°
2026-05-08 11:02 34.60801 -2.57740 31940 ft 411 kts 251°
2026-05-08 11:03 34.59020 -2.64339 31929 ft 410 kts 251°
2026-05-08 11:03 34.57208 -2.70908 31940 ft 409 kts 251°
2026-05-08 11:04 34.55419 -2.77420 31930 ft 409 kts 251°
2026-05-08 11:04 34.53652 -2.83961 31928 ft 408 kts 251°
2026-05-08 11:05 34.51890 -2.90494 31933 ft 407 kts 251°
2026-05-08 11:05 34.50119 -2.97036 31931 ft 407 kts 251°
2026-05-08 11:06 34.48359 -3.03515 31933 ft 407 kts 251°
2026-05-08 11:06 34.46579 -3.10051 31929 ft 408 kts 251°
2026-05-08 11:07 34.44794 -3.16588 31927 ft 408 kts 251°
2026-05-08 11:07 34.43011 -3.23103 31900 ft 408 kts 251°
2026-05-08 11:08 34.41233 -3.29587 31929 ft 408 kts 251°
2026-05-08 11:08 34.39438 -3.36116 31936 ft 409 kts 251°
2026-05-08 11:09 34.37637 -3.42658 31931 ft 409 kts 251°
2026-05-08 11:09 34.35829 -3.49210 31940 ft 409 kts 251°
2026-05-08 11:10 34.34062 -3.55720 31929 ft 409 kts 251°
2026-05-08 11:10 34.32290 -3.62267 31927 ft 409 kts 251°
2026-05-08 11:11 34.30518 -3.68787 31938 ft 408 kts 251°
2026-05-08 11:11 34.28740 -3.75310 31936 ft 408 kts 251°
2026-05-08 11:12 34.26958 -3.81825 31940 ft 408 kts 251°
2026-05-08 11:12 34.25186 -3.88296 31943 ft 408 kts 251°
2026-05-08 11:13 34.23397 -3.94807 31938 ft 407 kts 251°
2026-05-08 11:13 34.21607 -4.01311 31939 ft 407 kts 251°
2026-05-08 11:14 34.19815 -4.07806 31942 ft 407 kts 251°